네이버 하비 코리아

제목 작성자 내용

No 제목 작성자 등록일 조회
131 [공지] 2021년 결산 고객사은행사 당첨자 안내 !!! 네이버 2022-01-22 1619
130 [공지] 12월 25일 성탄절 오프라인 매장 영업 안내 !!! 네이버 2021-12-24 1020
129 [행사] 2021년 결산 고객사은행사 안내 !!! 네이버 2021-12-19 4355
128 [공지] 2020년 결산 고객사은행사 당첨자 안내 !!! 네이버 2021-01-24 1650
127 [공지] 12월 25일 성탄절 오프라인 매장 영업 안내 !!! 네이버 2020-12-23 1349
126 [행사] 2020년 결산 고객사은행사 안내 !!! 네이버 2020-12-13 5326
125 [행사] 각종 메이커 특가 판매 안내 !!! 네이버 2020-07-21 18426
124 [행사] AFVClub/HobbyBoss 특가 판매 안내 !!! 네이버 2020-06-19 13422
123 [공지] 2019년 결산 고객사은행사 당첨자 안내 !!! 네이버 2020-02-09 1856
122 [행사] 2019년 결산 고객사은행사 안내 !!! 네이버 2019-12-08 5389
121 [행사] Studio 27Tabu Design 기간 한정 특별할인판매 안내 !!! 네이버 2019-07-31 4328
120 [공지] 2019년 상반기 결산 고객사은행사 당첨자 안내 !!! 네이버 2019-07-28 1564
119 [행사] 2019년 상반기 결산 고객사은행사 안내 !!! 네이버 2019-06-23 4513
118 [행사] 창립 40주년 기념 고객사은행사 안내 !!! 네이버 2019-01-20 6050
117 [공지] 2018년 결산 고객사은행사 당첨자 안내 !!! 네이버 2019-01-20 1502
116 [행사] 2018년 결산 고객사은행사 안내 !!! 네이버 2018-12-09 5768
115 [공지] 2018년 상반기 결산 고객사은행사 당첨자 안내 !!! 네이버 2018-08-12 1812
114 [행사] 2018년 상반기 결산 고객사은행사 안내 !!! 네이버 2018-07-01 5316
113 [공지] 2017년 결산 고객사은행사 당첨자 안내 !!! 네이버 2018-01-21 2210
112 [행사] 'Artwox 목갑판 고별 할인 판매' 네이버 2018-01-07 3192
111 [행사] 2017년 결산 고객사은행사 안내 !!! 네이버 2017-12-10 6530
110 [행사] Trumpeter 한정특가 행사 안내 !!! 네이버 2017-12-09 8115
109 [행사] Kinetic 제품 증정 행사 안내 !!! 네이버 2017-06-07 3567
108 [공지] 2016년 결산 고객사은행사 당첨자 안내 !!! 네이버 2017-01-30 2489
107 [행사] 2016년 결산 고객사은행사 안내 !!! 네이버 2016-12-04 7500
106 [특가행사 3탄] Bronco Models 한정특가 안내 !!! 네이버 2016-06-23 13981
105 [특가행사 2탄] MiniArt 한정특가 안내 !!! 네이버 2016-06-21 9544
104 [공지] 홍대역 매장 이전행사 당첨자 안내 네이버 2016-06-11 2170
103 [특가행사 1탄] AFV Club 한정특가 안내 !!! 네이버 2016-06-07 14604
102 [행사] 홍대역 매장 이전 기념 행사 안내 !! 네이버 2016-04-29 8872
101 [행사] Bandai 4월 특가 판매 안내 !!! 네이버 2016-04-02 6964
100 [행사] E.T.Model 할인 판매 안내 !!! 네이버 2016-03-17 2135
99 [공지] 2015년 결산 행사 당첨자 안내 !!! 네이버 2016-01-30 1854
98 [행사] 2015년 결산 고객사은행사 안내 !!! 네이버 2015-12-12 7544
97 [행사] 쿵스 스틱사포 세트 출시 행사 안내 !! 네이버 2015-10-24 1946
96 [행사] Gaianotes 사포 증정 행사 안내 !! 네이버 2015-08-24 1878
95 [공지] 상반기 결산 행사 당첨자 안내 !!! 네이버 2015-08-23 1573
94 [행사] 2015년 상반기 결산 사은 행사 네이버 2015-06-28 12728
93 [공지] 설맞이 고객사은행사 당첨자 안내 !! 네이버 2015-03-29 1187
92 [행사] 설맞이 고객사은행사 안내 !! 네이버 2015-02-08 12209
91 [공지] 2014년 결산 행사 당첨자 안내 네이버 2015-01-22 1479
90 [행사] 2014년 결산 고객사은행사 안내 !!! 네이버 2014-12-07 11623
89 [행사] Trumpeter 한정특가 행사 안내 !!! 네이버 2014-11-12 4295
88 [공지] 상반기 결산 사은행사 당첨자 발표 !!! 네이버 2014-08-08 1511
87 [행사] Lionroar 기간 한정 특별할인판매 안내 !!! 네이버 2014-07-03 3564
86 [행사] 2014년 상반기 결산 행사 !!! 네이버 2014-06-15 4485
85 [공지] 2013년 고객사은행사 당첨자 발표 !!! 네이버 2014-01-20 1311
84 [행사] 2013년 결산 고객사은행사 !!! 네이버 2013-12-16 9481
83 [공지] 2013년 상반기 결산 행사 당첨자 안내 !!! 네이버 2013-07-29 1182
82 [행사] 가정의 달 특집 한정특가 행사!!! 네이버 2013-05-16 5842

이전 [ 1 ][ 2 ][ 3 ] 다음

회사소개 및 약도 | 이용안내 | 사이트맵 | 개인정보처리방침 | 이용약관 | 신용카드 내역조회 | 인재 채용

네이버 하비 코리아 | 사업자등록번호 105-08-22004 [사업자등록정보확인] | 통신판매업신고번호 서울마포-제2002-00695호
대표 이수영 | 서울특별시 마포구 연희로 11 한국특허정보원빌딩 1층 [홍대입구역 3번 출구] | Hosting by Smileserv
Tel 02)3141-9845 | Fax 02)3141-9846 | E-mail admin@modelsale.com

네이버 하비 코리아는 공정거래위원회 심의 표준약관을 사용합니다. 이미지와 컨텐츠의 저작권은 네이버 하비 코리아에 있으며, 무단복제나 도용은 저작권법에 의거하여 처벌받을 수 있습니다.
Copyright ⓒ2001~2022. Neighbor Hobby Korea All rights reserved.